Hourly Data Report for August 15, 2015

All times are specified in Local Standard Time (LST). Add 1 hour to adjust for Daylight Saving Time where and when it is observed.

TORONTO INTL A
ONTARIO

43°40'36.000" N
79°37'50.000" W
173.40 m
6158731
71624
YYZ

Download Data

Hourly Data (August 2015)
Hourly Data Report for August 15, 2015
Temp Definition
°C
Dew Point Temp Definition
°C
Rel Hum Definition
%
Wind Dir Definition
10's deg

Wind Spd Definition
km/h
Visibility Definition
km
Stn Press Definition
kPa
Hmdx Definition


Wind Chill Definition


Weather Definition


TIME
00:00 Legend Double Dagger 21.7 19.5 87 31 10 24.1 99.66 29   LegendNANA
01:00 Legend Double Dagger 21.1 19.4 90 35 8 24.1 99.69 28   Mainly Clear
02:00 Legend Double Dagger 20.7 19.0 90 2 9 24.1 99.73 27   LegendNANA
03:00 Legend Double Dagger 20.6 18.8 89 36 11 24.1 99.73 27   LegendNANA
04:00 Legend Double Dagger 19.7 18.2 91 2 10 24.1 99.76     Mostly Cloudy
05:00 Legend Double Dagger 19.5 18.2 92 4 6 24.1 99.81     LegendNANA
06:00 Legend Double Dagger 19.7 18.0 90 4 6 24.1 99.88     LegendNANA
07:00 Legend Double Dagger 21.1 18.7 86 36 1 24.1 99.91 28   Mostly Cloudy
08:00 Legend Double Dagger 23.0 17.8 72 36 3 24.1 99.90 29   LegendNANA
09:00 Legend Double Dagger 24.0 17.8 68 28 7 24.1 99.93 30   LegendNANA
10:00 Legend Double Dagger 25.0 18.8 68 29 5 24.1 99.93 32   Mostly Cloudy
11:00 Legend Double Dagger 26.3 17.8 59 2 5 24.1 99.95 32   LegendNANA
12:00 Legend Double Dagger 26.9 18.6 60 18 8 24.1 99.92 33   LegendNANA
13:00 Legend Double Dagger 28.0 19.1 58 18 4 24.1 99.88 35   Mostly Cloudy
14:00 Legend Double Dagger 27.1 19.3 62 14 14 24.1 99.87 34   LegendNANA
15:00 Legend Double Dagger 28.2 20.1 61 17 15 24.1 99.83 36   LegendNANA
16:00 Legend Double Dagger 28.4 19.2 57 17 12 24.1 99.78 35   Mainly Clear
17:00 Legend Double Dagger 28.6 19.7 58 19 12 24.1 99.79 36   LegendNANA
18:00 Legend Double Dagger 27.9 18.8 57 17 11 24.1 99.77 35   LegendNANA
19:00 Legend Double Dagger 26.4 18.2 60 16 9 24.1 99.80 33   Mainly Clear
20:00 Legend Double Dagger 25.9 19.0 65 16 7 24.1 99.86 33   LegendNANA
21:00 Legend Double Dagger 25.1 19.6 71 16 8 24.1 99.90 32   LegendNANA
22:00 Legend Double Dagger 24.8 19.5 72 30 5 24.1 99.91 32   Clear
23:00 Legend Double Dagger 22.7 17.3 71 32 14 24.1 99.90 28   LegendNANA

Notes on Data Quality.

Legend

  • E = Estimated
  • M = Missing
  • NA = Not Available
  • ‡ = Partner data that is not subject to review by the National Climate Archives
Date modified: